ZHONGXING-11

Last updated on Sun Aug 31 2025 00:02:48 GMT+0000 (Coordinated Universal Time)

1 39157U 13020A 25241.79539263 .00000000 00000+0 00000+0 0 9997 2 39157 0.0183 131.1559 0001579 40.8117 190.4789 1.00266605 44975
UTC large
Height (km)
Speed (km/s)
/
Latitude / Longitude
Inclination (degrees)
Orbital Period (minutes)
Azimuth
Elevation
Range (km)
Doppler Factor

Next 0 passes for location: London (51.5072 / 0.1276)

Sorry there are no passes over London.